FW5295 Weather Reports


time (UTC)temp
F
wind
direction
speed
knots
gust
knots
rain 1hr
in
rain 24hr
in
rain mn
in
humidity
%
barometer
mb
20260504183411 77 294 5.2 13.0 0.00 0.00 0.00 33 999.0
20260504182914 77 215 3.5 7.8 0.00 0.00 0.00 36 999.0
20260504182638 76 253 4.3 7.0 0.00 0.00 0.00 39 999.0
20260504181911 76 278 4.3 7.0 0.00 0.00 0.00 34 999.4
20260504181410 76 260 3.5 9.6 0.00 0.00 0.00 36 999.4
20260504180912 76 245 6.1 9.6 0.00 0.00 0.00 35 999.0
20260504180409 76 222 4.3 9.6 0.00 0.00 0.00 36 999.4
20260504180133 75 188 1.7 9.6 0.00 0.00 0.00 35 999.4
20260504175408 75 292 4.3 13.0 0.00 0.00 0.00 40 999.4
20260504174909 75 273 2.6 13.0 0.00 0.00 0.00 39 999.4
20260504174407 75 203 4.3 7.0 0.00 0.00 0.00 38 999.7
20260504173907 74 268 4.3 7.0 0.00 0.00 0.00 39 999.7
20260504173406 74 259 3.5 13.0 0.00 0.00 0.00 38 1000.1
20260504172905 74 207 1.7 13.0 0.00 0.00 0.00 38 1000.1
20260504172406 74 248 6.1 9.6 0.00 0.00 0.00 39 1000.1
20260504172128 73 291 2.6 10.4 0.00 0.00 0.00 38 1000.1
20260504171403 73 271 3.5 10.4 0.00 0.00 0.00 40 1000.1
20260504170905 73 245 5.2 8.7 0.00 0.00 0.00 39 1000.1
20260504170403 73 262 3.5 8.7 0.00 0.00 0.00 40 1000.1
20260504160356 70 192 3.5 11.3 0.00 0.01 0.00 46 1001.1
20260504151109 68 234 3.5 9.6 0.00 0.02 0.00 50 1001.7
20260504150349 68 231 4.3 9.6 0.00 0.02 0.00 49 1001.7
20260504140844 62 182 1.7 5.2 0.00 0.02 0.00 57 1002.2
20260504140342 62 217 3.5 5.2 0.00 0.02 0.00 59 1002.2
20260504130336 55 193 1.7 7.0 0.00 0.02 0.00 70 1002.9
20260504110337 48 204 1.7 3.5 0.00 0.02 0.00 73 1003.2
20260504100317 53 171 0.9 4.3 0.00 0.02 0.00 63 1003.2
20260504081809 51 264 0.9 4.3 0.00 0.02 0.00 73 1003.2
20260504081307 51 239 0.9 3.5 0.00 0.02 0.00 72 1003.2
20260504080809 51 249 0.9 3.5 0.00 0.02 0.00 73 1003.2
20260504080524 50 238 2.6 3.5 0.00 0.02 0.00 75 1003.2
20260504070259 51 168 0.0 2.6 0.00 0.02 0.00 74 1003.9
20260504050748 53 217 1.7 3.5 0.00 0.02 0.00 73 1004.9
20260504050246 54 216 2.6 3.5 0.00 0.02 0.00 73 1004.9
20260504050006 54 193 1.7 5.2 0.00 0.02 0.02 72 1004.9
20260504045506 54 253 2.6 5.2 0.00 0.02 0.02 72 1005.2
20260504044748 54 200 1.7 4.3 0.00 0.02 0.02 71 1005.2
20260504044245 55 200 0.0 4.3 0.00 0.02 0.02 71 1005.2
20260504043745 55 187 1.7 5.2 0.00 0.02 0.02 70 1004.9
20260504043246 55 236 1.7 5.2 0.00 0.02 0.02 70 1005.2
20260504042744 55 207 1.7 3.5 0.00 0.02 0.02 69 1004.9
20260504042242 55 205 1.7 3.5 0.00 0.02 0.02 69 1005.2
20260504041743 55 237 3.5 3.5 0.00 0.02 0.02 69 1005.2
20260504041240 56 192 1.7 3.5 0.00 0.02 0.02 69 1004.9
20260504040742 56 216 3.5 3.5 0.00 0.02 0.02 68 1004.9
20260504040240 56 195 1.7 3.5 0.00 0.02 0.02 68 1004.9
20260504035740 56 230 3.5 4.3 0.00 0.02 0.02 68 1005.2
20260504035238 56 227 3.5 5.2 0.00 0.02 0.02 67 1004.9
20260504034739 56 224 1.7 5.2 0.00 0.02 0.02 67 1004.9
20260504034239 56 195 2.6 3.5 0.00 0.02 0.02 67 1004.9
20260504033738 57 204 1.7 4.3 0.00 0.02 0.02 66 1004.9
20260504033238 57 213 1.7 4.3 0.00 0.02 0.02 66 1004.9
20260504032737 57 207 1.7 4.3 0.00 0.02 0.02 66 1005.2
20260504032236 57 202 2.6 4.3 0.00 0.02 0.02 65 1004.9
20260504031737 58 210 1.7 3.5 0.00 0.02 0.02 65 1005.2
20260504031236 58 202 2.6 3.5 0.00 0.02 0.02 65 1005.2
20260504030735 58 183 1.7 4.3 0.00 0.02 0.02 64 1005.2
20260504030234 58 179 1.7 4.3 0.00 0.02 0.02 64 1005.2
20260504025737 58 217 2.6 4.3 0.00 0.02 0.02 65 1005.2
20260504025233 58 225 2.6 4.3 0.00 0.02 0.02 65 1005.2
20260504024733 58 227 1.7 2.6 0.00 0.02 0.02 65 1005.2
20260504024232 58 189 0.9 3.5 0.00 0.02 0.02 64 1005.2
20260504023732 58 215 1.7 3.5 0.00 0.02 0.02 63 1005.2
20260504023708 59 206 2.6 3.5 0.00 0.02 0.02 63 1005.2
20260504022733 59 203 1.7 3.5 0.00 0.02 0.02 63 1005.2
20260504022229 59 212 1.7 3.5 0.00 0.02 0.02 63 1005.2
20260504021732 59 213 1.7 3.5 0.00 0.02 0.02 63 1005.2
20260504021228 59 198 1.7 3.5 0.00 0.02 0.02 64 1005.2
20260504020730 59 192 1.7 4.3 0.00 0.02 0.02 63 1005.2
20260504020229 59 220 2.6 4.3 0.00 0.02 0.02 63 1005.2
20260504015957 59 213 0.0 5.2 0.00 0.02 0.02 62 1004.9
20260504015226 60 186 1.7 5.2 0.00 0.02 0.02 62 1004.9
20260504014728 60 230 2.6 4.3 0.00 0.02 0.02 62 1004.9
20260504014228 60 232 2.6 4.3 0.00 0.02 0.02 61 1004.9
20260504013726 60 167 0.0 3.5 0.00 0.02 0.02 61 1004.9
20260504013225 60 204 1.7 4.3 0.00 0.02 0.02 61 1004.6
20260504012725 60 238 1.7 4.3 0.00 0.02 0.02 60 1004.9
20260504012710 61 217 1.7 3.5 0.00 0.02 0.02 59 1004.9
20260504011723 61 225 2.6 3.5 0.00 0.02 0.02 59 1004.9
20260504011222 61 207 1.7 3.5 0.00 0.02 0.02 57 1004.9
20260504010723 62 222 1.7 3.5 0.00 0.02 0.02 58 1004.6
20260504010222 62 205 1.7 2.6 0.00 0.02 0.02 57 1004.6
20260504005721 62 193 1.7 2.6 0.00 0.02 0.02 56 1004.6
20260504005222 63 154 0.9 1.7 0.00 0.02 0.02 55 1004.6
20260504004722 64 207 1.7 2.6 0.00 0.02 0.02 53 1004.6
20260504004221 64 204 1.7 2.6 0.00 0.02 0.02 51 1004.6
20260504003719 65 220 0.9 3.5 0.00 0.02 0.02 50 1004.6
20260504003446 65 206 1.7 3.5 0.00 0.02 0.02 50 1004.6
20260504002719 65 204 0.9 3.5 0.00 0.02 0.02 49 1004.6
20260504002217 66 227 3.5 5.2 0.00 0.02 0.02 49 1004.6
20260504001719 66 228 1.7 5.2 0.00 0.02 0.02 48 1004.6
20260504001216 66 237 2.6 5.2 0.00 0.02 0.02 49 1004.9
20260504000716 66 237 2.6 4.3 0.00 0.02 0.02 49 1004.6
20260504000215 66 205 0.9 4.3 0.00 0.02 0.02 49 1004.9
20260503235715 67 247 0.9 6.1 0.00 0.02 0.02 49 1004.9
20260503235440 67 196 1.7 6.1 0.00 0.02 0.02 48 1004.9
20260503234715 67 241 2.6 5.2 0.00 0.02 0.02 47 1004.6
20260503234213 67 267 1.7 9.6 0.00 0.02 0.02 45 1004.6
20260503233718 67 251 1.7 9.6 0.00 0.02 0.02 46 1004.6
20260503233211 68 306 3.5 9.6 0.00 0.02 0.02 44 1004.9
20260503232713 68 238 3.5 9.6 0.00 0.02 0.02 45 1004.6
20260503232211 68 237 3.5 9.6 0.00 0.02 0.02 44 1004.6
20260503231712 68 275 3.5 8.7 0.00 0.02 0.02 45 1004.6
20260503231210 68 275 2.6 9.6 0.00 0.02 0.02 44 1004.9
20260503230712 68 252 2.6 9.6 0.00 0.02 0.02 44 1004.6
20260503230427 68 243 3.5 8.7 0.00 0.02 0.02 45 1004.6
20260503225934 68 231 3.5 9.6 0.00 0.02 0.02 46 1004.9
20260503225208 67 232 1.7 9.6 0.00 0.02 0.02 45 1004.9
20260503224710 68 233 7.8 8.7 0.00 0.02 0.02 47 1004.6
20260503224207 68 200 1.7 11.3 0.00 0.02 0.02 46 1004.9
20260503223925 68 229 1.7 11.3 0.00 0.02 0.02 45 1004.9
20260503223205 68 229 3.5 11.3 0.00 0.02 0.02 45 1005.2
20260503222706 68 239 6.1 10.4 0.00 0.02 0.02 45 1005.2
20260503222205 68 243 4.3 10.4 0.00 0.02 0.02 44 1004.9
20260503221706 68 235 5.2 10.4 0.00 0.02 0.02 44 1004.9
20260503221204 68 237 3.5 9.6 0.00 0.02 0.02 45 1005.2
20260503220709 68 229 1.7 12.2 0.00 0.02 0.02 45 1005.2
20260503220204 68 232 5.2 13.9 0.00 0.02 0.02 44 1004.9
20260503215704 68 233 4.3 13.9 0.00 0.02 0.02 46 1005.2
20260503215523 67 235 4.3 13.0 0.00 0.02 0.02 44 1005.2
20260503215422 67 225 3.5 8.7 0.00 0.02 0.02 45 1004.9
20260503214202 66 205 2.6 12.2 0.00 0.02 0.02 48 1005.2
20260503213702 65 222 7.8 12.2 0.00 0.02 0.02 47 1005.2
20260503213427 65 213 4.3 10.4 0.00 0.02 0.02 47 1005.2
20260503212702 66 184 4.3 10.4 0.00 0.02 0.02 46 1005.2
20260503212159 66 215 5.2 9.6 0.00 0.02 0.02 47 1005.2
20260503211700 66 271 3.5 11.3 0.00 0.02 0.02 47 1005.6
20260503211158 66 231 5.2 11.3 0.00 0.02 0.02 46 1006.0